SCP
-0 0 0 0 -0 0 0 0 0 0 0 0 0 0 0 0 0 0 0 0 0 0 0 0 0 0 0 0 0 0 0 0 0 0 0 0 -0 0 -0 0 0 0 0 -0
0 0 0 0 0 0 0 -0 -0 0 0 0 0 0 0 0 0 0 0 0 0 0 0 0 0 0 0 0 0 0 0 0 0 0 0 0 -0 0 0 0 0 0 0 -0
0 0 0 0 0 0 0 -0 0 0 0 0 0 0 0 0 0 0 0 0 0 0 0 0 0 0 0 0 0 0 0 0 0 0 0 0 0 -0 0 0 0 -0 -0 -0
0 0 0 0 0 0 0 0 0 0 0 0 0 0 0 0 0 0 0 0 0 0 0 0 0 0 0 0 -0 0 0 0 0 0 0 0 0 0 0 0 0 -0 0 -0
0 0 0 0 0 0 0 0 0 0 0 0 0 0 0 0 0 0 0 0 0 0 0 0 0 0 0 0 0 0 0 0 0 0 0 0 0 -0 -0 -0 -0 -0 0 -0
0 0 0 0 0 0 0 0 0 0 0 0 0 0 0 0 0 0 0 0 0 0 0 0 0 0 0 0 0 0 0 0 0 0 0 0 0 -0 0 -0 0 0 0 0
0 0 0 0 0 0 0 0 0 0 0 0 0 0 0 0 0 0 0 0 0 0 0 0 0 0 0 0 0 0 0 0 0 0 0 0 0 0 0 0 0 0 0 0
0 0 0 0 0 0 0 0 0 0 0 0 0 0 0 0 0 0 0 0 0 0 0 0 0 0 0 0 0 0 0 0 0 0 0 0 0 0 0 -0 -0 -0 0 0
0 0 0 0 0 0 0 0 0 0 0 0 0 0 0 0 0 0 0 0 0 0 0 0 0 0 0 0 0 0 0 0 0 0 0 0 0 0 0 -0 -0 0 0 0
0 0 0 0 0 0 0 0 0 0 0 0 0 0 0 0 0 0 0 0 0 0 0 0 0 0 0 0 0 0 0 0 0 0 0 0 0 0 -0 -0 -0 -0 -0 0
0 0 0 0 0 0 0 0 0 0 0 0 -0 0 0 0 0 0 0 0 0 0 0 0 0 0 0 0 0 0 0 0 0 0 0 -0 0 -0 -0 0 -0 -0 -0 -0
0 0 0 0 0 0 0 0 0 0 0 0 0 -0 -0 -0 0 0 0 0 0 0 0 0 0 0 0 0 0 0 0 0 0 0 0 -0 -0 -0 0 0 -0 -0 -0 -0
0 0 0 0 0 0 0 0 0 0 0 0 0 0 0 0 0 0 0 0 0 0 0 0 0 0 0 0 0 0 0 0 0 -0 0 -0 -0 0 0 -0 -0 -0 -0 -0
0 0 0 0 0 0 0 0 0 0 0 0 0 0 0 0 0 0 0 0 0 0 0 0 0 0 0 0 0 0 0 0 0 0 0 -0 0 0 -0 -0 -0 -0 -0 0
0 0 0 0 0 0 0 0 0 0 0 0 0 0 0 0 0 0 0 0 0 0 0 0 0 0 0 0 0 0 0 0 -0 0 -0 0 -0 -0 0 -0 -0 -0 0 -0
0 0 0 0 0 0 0 0 0 0 0 0 0 0 0 0 0 0 0 0 0 0 0 0 0 0 0 0 0 0 0 0 0 0 0 -0 -0 -0 -0 -0 -0 0 0 0
0 0 0 0 0 0 0 0 0 0 0 0 0 0 0 0 0 0 0 0 0 0 0 0 0 0 0 0 0 0 0 -0 0 0 -0 -0 -0 -0 -0 -0 0 0 -0 -0
0 0 0 0 0 0 0 0 0 0 0 0 0 0 0 0 0 0 0 0 0 0 0 0 0 0 0 0 0 0 0 -0 -0 -0 -0 -0 -0 -0 -0 0 -0 -0 0 0
0 0 0 0 0 0 0 0 0 0 0 0 0 0 0 0 0 0 0 0 0 0 0 0 0 0 0 0 0 0 0 0 -0 -0 -0 -0 -0 -0 -0 -0 0 0 0 -0
0 0 0 0 0 0 0 0 0 0 0 0 0 0 0 0 0 0 0 0 0 0 0 0 0 0 0 0 0 0 0 -0 -0 -0 0 -0 -0 -0 -0 0 0 -0 0 0
0 0 0 0 0 0 0 0 0 0 0 0 0 0 -0 -0 0 0 0 0 0 0 0 0 0 0 0 0 0 0 0 -0 -0 -0 -0 -0 -0 -0 0 0 -0 -0 -0 0
0 0 0 0 0 0 0 0 0 0 0 0 0 0 0 0 0 0 0 0 0 -0 0 0 0 0 0 0 0 0 -0 -0 0 0 -0 -0 -0 -0 0 -0 0 0 -0 0
0 0 0 0 0 0 0 0 0 0 0 0 0 0 0 0 0 0 0 0 0 -0 -0 0 0 0 -0 0 0 -0 -0 0 0 0 -0 -0 -0 0 0 0 0 0 0 0
0 0 0 0 0 0 0 0 0 0 0 0 0 0 -0 0 0 0 0 0 -0 -0 -0 -0 -0 -0 0 0 -0 -0 -0 0 0 0 0 0 0 0 0 0 0 0 0 0
0 0 0 0 0 0 0 0 0 0 0 -0 0 0 0 0 0 0 0 0 0 -0 -0 -0 -0 0 0 0 -0 -0 0 0 0 0 0 0 0 0 0 0 0 0 0 0
0 0 0 0 0 0 0 0 0 0 0 0 0 0 0 0 0 0 0 0 -0 -0 -0 -0 -0 0 0 -0 -0 -0 0 0 0 0 0 -0 0 0 0 0 0 0 0 0
0 0 0 0 0 0 0 0 0 0 0 0 0 0 0 0 0 0 0 0 0 0 -0 -0 0 0 0 -0 -0 -0 0 0 0 0 0 -0 0 0 0 0 0 0 0 0
Wind_Speed_500mb
62 61 61 64 65 59 46 8 11 3 12 18 26 11 9 8 20 15 23 23 25 27 29 29 32 32 34 12 11 22 26 16 32 48 52 52 42 36 34 14 21 20 13 19
59 60 57 57 58 59 53 17 20 5 10 10 16 28 25 31 15 20 20 22 34 31 26 20 16 29 35 37 30 11 18 8 23 33 19 27 36 41 27 32 20 22 24 23
61 60 56 52 48 45 34 16 9 9 25 12 8 24 29 22 22 16 18 22 34 32 33 30 27 44 45 55 38 19 13 13 32 29 41 42 47 50 50 42 22 32 38 50
60 61 56 49 44 29 25 12 11 9 12 24 35 24 26 31 28 17 16 20 29 31 36 42 45 44 45 53 64 38 17 20 34 38 45 45 53 58 54 48 51 42 50 46
57 57 57 54 45 27 16 17 16 23 41 29 22 21 26 28 23 25 29 36 35 29 32 39 50 50 43 44 37 34 16 8 24 35 39 49 56 55 59 52 50 42 34 37
52 52 50 50 47 33 13 24 21 22 23 32 25 19 22 26 36 30 25 34 34 37 41 52 56 62 67 54 46 37 27 8 16 47 40 44 40 41 27 34 22 22 28 25
48 44 43 42 42 33 15 24 26 24 19 21 26 37 40 30 31 30 37 40 34 45 50 56 58 68 73 67 49 43 11 9 17 19 33 25 24 27 19 20 30 30 36 36
43 40 38 37 36 32 21 18 20 19 16 32 35 34 35 41 38 31 40 39 26 41 41 23 22 22 30 38 35 30 36 22 8 10 17 32 36 15 21 27 33 31 28 37
39 36 32 31 30 26 20 16 10 12 21 6 30 32 34 25 26 25 30 39 36 39 16 13 22 28 37 17 21 10 10 19 6 7 9 14 18 11 53 33 29 29 45 43
35 31 28 28 22 21 20 19 14 10 20 30 23 34 29 35 34 17 35 24 28 22 14 19 25 29 30 11 21 24 18 19 19 22 19 16 8 35 39 15 21 53 47 54
31 27 23 22 21 20 20 17 20 19 22 58 47 28 31 41 34 10 23 20 14 18 13 13 13 17 15 23 35 29 25 14 17 14 10 14 54 54 19 19 46 48 59 61
30 27 22 18 21 21 22 18 14 25 28 49 64 71 51 51 43 44 24 17 22 9 7 11 9 19 20 28 16 24 9 12 9 9 15 47 58 47 48 39 49 60 63 52
31 29 28 27 29 28 25 23 21 31 36 53 35 31 20 20 29 29 28 24 19 12 4 6 5 11 16 17 25 29 17 32 12 28 27 37 57 46 44 61 55 52 64 74
30 29 29 31 33 32 30 25 22 27 19 11 12 22 36 32 31 37 37 33 30 25 17 9 6 6 17 18 26 32 31 35 24 35 39 43 42 45 52 55 47 67 72 70
31 30 29 29 31 32 31 32 21 27 17 14 50 61 21 10 15 15 31 50 44 29 8 6 7 13 16 23 22 25 30 7 7 7 40 25 33 54 50 53 65 66 70 75
31 31 30 29 30 31 25 10 21 17 11 16 10 33 29 17 25 25 33 34 34 19 11 9 12 31 15 7 10 28 36 31 34 18 31 39 58 45 48 61 62 62 68 55
32 32 32 30 29 28 14 12 8 14 7 12 17 17 5 11 21 26 19 13 16 18 9 13 20 40 23 6 14 32 41 45 40 34 48 48 35 47 58 60 59 55 43 34
29 29 30 30 30 34 29 10 17 26 14 11 7 11 29 5 16 18 17 17 17 16 11 9 18 26 15 9 22 38 28 36 36 42 39 37 46 52 59 57 52 47 31 29
24 26 26 30 21 13 15 21 13 14 15 10 11 11 11 12 23 19 13 13 6 12 9 10 10 8 9 16 23 22 28 30 42 40 40 38 48 55 53 51 49 39 22 14
18 18 11 13 6 8 7 6 8 15 14 16 18 33 19 31 26 11 12 9 8 6 13 13 9 10 21 20 16 22 26 34 31 39 42 49 53 51 52 46 42 31 17 9
7 10 1 6 14 6 12 11 12 15 10 16 21 36 21 28 12 10 9 9 7 6 4 7 7 4 10 26 24 23 30 27 29 31 37 44 44 46 46 43 36 23 14 15
16 21 24 12 9 12 8 8 12 12 10 17 23 29 36 16 10 8 8 7 7 11 14 7 2 6 15 24 29 29 29 28 30 34 40 43 40 40 38 34 27 22 27 32
7 6 9 11 15 7 13 18 14 10 16 17 17 13 11 14 14 10 7 8 11 22 7 4 5 13 24 22 27 28 26 31 33 35 37 40 33 35 32 30 29 35 42 49
8 13 10 11 13 15 21 23 13 8 15 6 11 16 11 11 12 9 9 9 7 7 9 3 8 24 24 26 28 25 27 32 33 35 35 36 32 33 32 28 27 35 41 43
12 14 10 17 30 35 16 19 10 9 22 24 9 13 16 13 14 9 8 7 4 3 4 4 23 26 23 23 27 23 25 29 33 38 34 31 30 28 30 31 34 48 57 62
12 16 21 28 19 20 23 23 23 17 19 10 10 11 8 8 7 6 7 5 5 5 4 19 20 17 18 20 22 21 23 28 28 35 30 28 26 26 27 31 41 49 54 57
13 17 36 40 41 37 39 28 31 19 17 9 9 8 10 7 6 8 3 7 5 11 20 18 14 13 16 16 15 16 20 23 28 33 25 29 25 25 34 45 45 51 60 63
Wind_Direction_500mb
0 0 360 358 357 0 8 12 300 355 339 257 236 277 26 336 312 301 280 275 285 295 311 308 300 303 299 69 355 302 299 299 291 298 292 274 263 272 311 286 275 271 275 264
359 359 1 0 357 358 354 324 292 252 349 303 338 336 317 308 278 302 314 297 305 300 298 305 276 291 296 298 283 261 313 260 301 308 289 8 327 316 299 303 313 272 281 273
354 356 358 359 1 357 351 310 315 349 316 238 308 327 312 314 321 270 302 305 304 292 288 283 288 299 308 306 294 236 233 245 250 263 280 299 298 300 299 292 284 280 270 289
347 347 349 355 358 4 359 328 349 352 297 324 324 307 300 302 299 309 285 289 293 300 307 301 297 300 302 300 296 295 201 243 248 258 274 278 281 280 276 273 267 262 279 297
344 343 344 349 355 9 3 351 342 322 294 290 303 279 278 289 311 337 314 311 313 302 299 295 299 305 299 296 301 294 309 290 285 283 279 287 286 283 276 265 267 263 284 264
342 341 342 347 355 5 354 345 324 304 288 292 289 296 322 311 313 301 297 317 319 308 304 317 304 292 283 275 276 270 271 230 273 275 291 298 292 289 283 298 258 251 306 327
337 337 340 346 349 3 348 332 328 305 297 321 308 324 306 309 321 319 310 306 314 313 316 312 301 282 273 264 260 249 223 180 241 273 289 268 259 13 357 347 312 332 319 325
331 335 339 339 344 350 354 339 339 318 300 314 304 349 331 315 310 317 329 312 333 322 316 316 314 313 322 317 232 242 217 199 189 231 231 279 287 34 359 336 305 306 355 343
325 327 335 337 338 347 351 321 316 321 309 47 330 312 309 324 325 316 306 318 321 314 308 289 289 311 310 299 315 60 96 164 212 265 275 289 337 33 330 310 296 8 343 324
319 321 332 336 330 337 330 319 294 281 281 279 324 311 309 303 303 291 298 329 321 318 283 279 282 298 311 305 308 320 327 303 250 269 267 269 101 319 347 316 328 325 311 308
311 314 324 335 327 318 319 299 298 272 265 287 289 293 285 288 281 260 290 330 29 317 326 308 342 316 330 318 317 311 308 300 298 302 283 281 354 339 348 296 311 319 311 310
303 304 306 308 326 313 306 318 297 302 275 274 291 290 271 260 258 263 259 246 305 296 313 322 322 310 301 311 300 323 310 315 286 263 279 308 304 322 331 338 315 312 310 312
303 303 302 303 306 314 317 299 300 301 295 300 305 292 303 244 243 241 241 262 245 227 282 355 292 284 317 298 297 302 306 310 287 295 284 295 305 320 321 322 314 314 312 310
302 305 303 301 301 306 309 302 290 294 287 287 294 320 301 282 259 236 232 242 259 263 257 221 236 246 281 281 291 292 288 297 279 281 290 330 310 314 313 316 317 315 315 311
296 302 305 303 305 310 310 300 273 267 265 294 298 302 303 304 239 246 243 235 255 247 175 202 232 252 270 271 280 270 275 269 282 269 308 308 305 311 323 322 321 320 317 314
291 295 299 303 302 306 333 316 186 225 284 298 311 307 306 284 228 243 240 236 237 208 194 224 241 248 255 265 277 286 302 337 338 313 324 318 312 317 321 320 323 325 320 322
289 293 297 301 300 293 255 269 269 240 281 278 299 295 292 247 252 260 250 223 227 219 225 227 253 264 244 233 259 281 325 307 316 325 331 322 321 321 321 328 330 330 327 328
289 292 295 294 289 284 286 278 272 240 269 253 272 271 281 202 279 245 231 199 190 219 239 254 254 276 220 259 275 302 303 322 322 326 326 320 323 323 331 335 335 337 335 339
291 290 291 287 272 239 226 266 267 209 247 276 235 264 292 307 312 322 281 214 209 224 220 222 237 237 234 251 285 314 332 338 325 327 328 332 330 329 334 338 343 346 349 353
284 280 244 217 108 191 319 283 214 207 223 231 250 256 250 294 318 307 308 206 233 232 225 202 225 247 33 51 0 339 340 333 336 334 340 337 332 339 340 346 347 352 6 62
255 248 5 24 340 285 240 214 216 186 227 224 250 239 248 266 265 294 287 306 264 269 147 235 225 75 334 355 352 341 339 341 341 340 336 344 346 346 344 349 357 13 54 94
291 290 314 298 246 241 235 223 212 205 239 192 222 219 219 243 222 250 255 266 285 260 155 205 71 311 351 350 344 343 344 350 351 349 350 351 356 354 351 2 21 55 87 102
272 264 241 211 218 215 226 218 213 218 216 208 212 229 222 211 203 221 258 249 246 291 248 45 12 358 349 20 343 347 354 356 357 354 356 357 8 355 14 29 59 83 93 101
231 225 237 230 204 221 215 240 292 201 276 178 203 231 257 227 189 207 241 243 291 273 13 32 305 319 7 358 347 355 360 359 359 2 2 12 7 13 37 50 79 90 91 103
235 236 235 226 247 269 264 263 248 277 202 226 279 295 277 270 254 242 247 254 253 151 335 275 326 356 21 359 352 5 0 0 6 8 10 21 12 35 51 71 87 96 96 103
233 240 259 269 286 277 299 309 307 254 268 272 279 257 250 262 254 243 260 282 273 19 0 348 331 0 21 3 1 2 0 4 14 8 29 25 30 49 67 91 108 111 106 100
232 242 245 263 274 279 279 266 275 280 272 270 286 267 235 255 227 221 238 306 40 16 356 332 335 15 19 3 6 9 5 11 22 12 42 36 55 71 87 101 107 112 107 103
Wind_Speed_850mb
62 61 61 64 65 59 46 8 11 3 12 18 26 11 9 8 20 15 23 23 25 27 29 29 32 32 34 12 11 22 26 16 32 48 52 52 42 36 34 14 21 20 13 19
59 60 57 57 58 59 53 17 20 5 10 10 16 28 25 31 15 20 20 22 34 31 26 20 16 29 35 37 30 11 18 8 23 33 19 27 36 41 27 32 20 22 24 23
61 60 56 52 48 45 34 16 9 9 25 12 8 24 29 22 22 16 18 22 34 32 33 30 27 44 45 55 38 19 13 13 32 29 41 42 47 50 50 42 22 32 38 50
60 61 56 49 44 29 25 12 11 9 12 24 35 24 26 31 28 17 16 20 29 31 36 42 45 44 45 53 64 38 17 20 34 38 45 45 53 58 54 48 51 42 50 46
57 57 57 54 45 27 16 17 16 23 41 29 22 21 26 28 23 25 29 36 35 29 32 39 50 50 43 44 37 34 16 8 24 35 39 49 56 55 59 52 50 42 34 37
52 52 50 50 47 33 13 24 21 22 23 32 25 19 22 26 36 30 25 34 34 37 41 52 56 62 67 54 46 37 27 8 16 47 40 44 40 41 27 34 22 22 28 25
48 44 43 42 42 33 15 24 26 24 19 21 26 37 40 30 31 30 37 40 34 45 50 56 58 68 73 67 49 43 11 9 17 19 33 25 24 27 19 20 30 30 36 36
43 40 38 37 36 32 21 18 20 19 16 32 35 34 35 41 38 31 40 39 26 41 41 23 22 22 30 38 35 30 36 22 8 10 17 32 36 15 21 27 33 31 28 37
39 36 32 31 30 26 20 16 10 12 21 6 30 32 34 25 26 25 30 39 36 39 16 13 22 28 37 17 21 10 10 19 6 7 9 14 18 11 53 33 29 29 45 43
35 31 28 28 22 21 20 19 14 10 20 30 23 34 29 35 34 17 35 24 28 22 14 19 25 29 30 11 21 24 18 19 19 22 19 16 8 35 39 15 21 53 47 54
31 27 23 22 21 20 20 17 20 19 22 58 47 28 31 41 34 10 23 20 14 18 13 13 13 17 15 23 35 29 25 14 17 14 10 14 54 54 19 19 46 48 59 61
30 27 22 18 21 21 22 18 14 25 28 49 64 71 51 51 43 44 24 17 22 9 7 11 9 19 20 28 16 24 9 12 9 9 15 47 58 47 48 39 49 60 63 52
31 29 28 27 29 28 25 23 21 31 36 53 35 31 20 20 29 29 28 24 19 12 4 6 5 11 16 17 25 29 17 32 12 28 27 37 57 46 44 61 55 52 64 74
30 29 29 31 33 32 30 25 22 27 19 11 12 22 36 32 31 37 37 33 30 25 17 9 6 6 17 18 26 32 31 35 24 35 39 43 42 45 52 55 47 67 72 70
31 30 29 29 31 32 31 32 21 27 17 14 50 61 21 10 15 15 31 50 44 29 8 6 7 13 16 23 22 25 30 7 7 7 40 25 33 54 50 53 65 66 70 75
31 31 30 29 30 31 25 10 21 17 11 16 10 33 29 17 25 25 33 34 34 19 11 9 12 31 15 7 10 28 36 31 34 18 31 39 58 45 48 61 62 62 68 55
32 32 32 30 29 28 14 12 8 14 7 12 17 17 5 11 21 26 19 13 16 18 9 13 20 40 23 6 14 32 41 45 40 34 48 48 35 47 58 60 59 55 43 34
29 29 30 30 30 34 29 10 17 26 14 11 7 11 29 5 16 18 17 17 17 16 11 9 18 26 15 9 22 38 28 36 36 42 39 37 46 52 59 57 52 47 31 29
24 26 26 30 21 13 15 21 13 14 15 10 11 11 11 12 23 19 13 13 6 12 9 10 10 8 9 16 23 22 28 30 42 40 40 38 48 55 53 51 49 39 22 14
18 18 11 13 6 8 7 6 8 15 14 16 18 33 19 31 26 11 12 9 8 6 13 13 9 10 21 20 16 22 26 34 31 39 42 49 53 51 52 46 42 31 17 9
7 10 1 6 14 6 12 11 12 15 10 16 21 36 21 28 12 10 9 9 7 6 4 7 7 4 10 26 24 23 30 27 29 31 37 44 44 46 46 43 36 23 14 15
16 21 24 12 9 12 8 8 12 12 10 17 23 29 36 16 10 8 8 7 7 11 14 7 2 6 15 24 29 29 29 28 30 34 40 43 40 40 38 34 27 22 27 32
7 6 9 11 15 7 13 18 14 10 16 17 17 13 11 14 14 10 7 8 11 22 7 4 5 13 24 22 27 28 26 31 33 35 37 40 33 35 32 30 29 35 42 49
8 13 10 11 13 15 21 23 13 8 15 6 11 16 11 11 12 9 9 9 7 7 9 3 8 24 24 26 28 25 27 32 33 35 35 36 32 33 32 28 27 35 41 43
12 14 10 17 30 35 16 19 10 9 22 24 9 13 16 13 14 9 8 7 4 3 4 4 23 26 23 23 27 23 25 29 33 38 34 31 30 28 30 31 34 48 57 62
12 16 21 28 19 20 23 23 23 17 19 10 10 11 8 8 7 6 7 5 5 5 4 19 20 17 18 20 22 21 23 28 28 35 30 28 26 26 27 31 41 49 54 57
13 17 36 40 41 37 39 28 31 19 17 9 9 8 10 7 6 8 3 7 5 11 20 18 14 13 16 16 15 16 20 23 28 33 25 29 25 25 34 45 45 51 60 63
Wind_Direction_850mb
0 0 360 358 357 0 8 12 300 355 339 257 236 277 26 336 312 301 280 275 285 295 311 308 300 303 299 69 355 302 299 299 291 298 292 274 263 272 311 286 275 271 275 264
359 359 1 0 357 358 354 324 292 252 349 303 338 336 317 308 278 302 314 297 305 300 298 305 276 291 296 298 283 261 313 260 301 308 289 8 327 316 299 303 313 272 281 273
354 356 358 359 1 357 351 310 315 349 316 238 308 327 312 314 321 270 302 305 304 292 288 283 288 299 308 306 294 236 233 245 250 263 280 299 298 300 299 292 284 280 270 289
347 347 349 355 358 4 359 328 349 352 297 324 324 307 300 302 299 309 285 289 293 300 307 301 297 300 302 300 296 295 201 243 248 258 274 278 281 280 276 273 267 262 279 297
344 343 344 349 355 9 3 351 342 322 294 290 303 279 278 289 311 337 314 311 313 302 299 295 299 305 299 296 301 294 309 290 285 283 279 287 286 283 276 265 267 263 284 264
342 341 342 347 355 5 354 345 324 304 288 292 289 296 322 311 313 301 297 317 319 308 304 317 304 292 283 275 276 270 271 230 273 275 291 298 292 289 283 298 258 251 306 327
337 337 340 346 349 3 348 332 328 305 297 321 308 324 306 309 321 319 310 306 314 313 316 312 301 282 273 264 260 249 223 180 241 273 289 268 259 13 357 347 312 332 319 325
331 335 339 339 344 350 354 339 339 318 300 314 304 349 331 315 310 317 329 312 333 322 316 316 314 313 322 317 232 242 217 199 189 231 231 279 287 34 359 336 305 306 355 343
325 327 335 337 338 347 351 321 316 321 309 47 330 312 309 324 325 316 306 318 321 314 308 289 289 311 310 299 315 60 96 164 212 265 275 289 337 33 330 310 296 8 343 324
319 321 332 336 330 337 330 319 294 281 281 279 324 311 309 303 303 291 298 329 321 318 283 279 282 298 311 305 308 320 327 303 250 269 267 269 101 319 347 316 328 325 311 308
311 314 324 335 327 318 319 299 298 272 265 287 289 293 285 288 281 260 290 330 29 317 326 308 342 316 330 318 317 311 308 300 298 302 283 281 354 339 348 296 311 319 311 310
303 304 306 308 326 313 306 318 297 302 275 274 291 290 271 260 258 263 259 246 305 296 313 322 322 310 301 311 300 323 310 315 286 263 279 308 304 322 331 338 315 312 310 312
303 303 302 303 306 314 317 299 300 301 295 300 305 292 303 244 243 241 241 262 245 227 282 355 292 284 317 298 297 302 306 310 287 295 284 295 305 320 321 322 314 314 312 310
302 305 303 301 301 306 309 302 290 294 287 287 294 320 301 282 259 236 232 242 259 263 257 221 236 246 281 281 291 292 288 297 279 281 290 330 310 314 313 316 317 315 315 311
296 302 305 303 305 310 310 300 273 267 265 294 298 302 303 304 239 246 243 235 255 247 175 202 232 252 270 271 280 270 275 269 282 269 308 308 305 311 323 322 321 320 317 314
291 295 299 303 302 306 333 316 186 225 284 298 311 307 306 284 228 243 240 236 237 208 194 224 241 248 255 265 277 286 302 337 338 313 324 318 312 317 321 320 323 325 320 322
289 293 297 301 300 293 255 269 269 240 281 278 299 295 292 247 252 260 250 223 227 219 225 227 253 264 244 233 259 281 325 307 316 325 331 322 321 321 321 328 330 330 327 328
289 292 295 294 289 284 286 278 272 240 269 253 272 271 281 202 279 245 231 199 190 219 239 254 254 276 220 259 275 302 303 322 322 326 326 320 323 323 331 335 335 337 335 339
291 290 291 287 272 239 226 266 267 209 247 276 235 264 292 307 312 322 281 214 209 224 220 222 237 237 234 251 285 314 332 338 325 327 328 332 330 329 334 338 343 346 349 353
284 280 244 217 108 191 319 283 214 207 223 231 250 256 250 294 318 307 308 206 233 232 225 202 225 247 33 51 0 339 340 333 336 334 340 337 332 339 340 346 347 352 6 62
255 248 5 24 340 285 240 214 216 186 227 224 250 239 248 266 265 294 287 306 264 269 147 235 225 75 334 355 352 341 339 341 341 340 336 344 346 346 344 349 357 13 54 94
291 290 314 298 246 241 235 223 212 205 239 192 222 219 219 243 222 250 255 266 285 260 155 205 71 311 351 350 344 343 344 350 351 349 350 351 356 354 351 2 21 55 87 102
272 264 241 211 218 215 226 218 213 218 216 208 212 229 222 211 203 221 258 249 246 291 248 45 12 358 349 20 343 347 354 356 357 354 356 357 8 355 14 29 59 83 93 101
231 225 237 230 204 221 215 240 292 201 276 178 203 231 257 227 189 207 241 243 291 273 13 32 305 319 7 358 347 355 360 359 359 2 2 12 7 13 37 50 79 90 91 103
235 236 235 226 247 269 264 263 248 277 202 226 279 295 277 270 254 242 247 254 253 151 335 275 326 356 21 359 352 5 0 0 6 8 10 21 12 35 51 71 87 96 96 103
233 240 259 269 286 277 299 309 307 254 268 272 279 257 250 262 254 243 260 282 273 19 0 348 331 0 21 3 1 2 0 4 14 8 29 25 30 49 67 91 108 111 106 100
232 242 245 263 274 279 279 266 275 280 272 270 286 267 235 255 227 221 238 306 40 16 356 332 335 15 19 3 6 9 5 11 22 12 42 36 55 71 87 101 107 112 107 103